Wilmington, OH

6:42 PM EST on January 19, 2018 (GMT -0500)
Airborne

Weather History for KILN - August, 2013

Change the Weather History Date:

Wednesday, August 21, 2013

  Actual Average (KFFO) Record (KFFO)
Temperature  
Mean Temperature 73 °F -  
Max Temperature 84 °F 81 °F 91 °F (2003)
Min Temperature 64 °F 60 °F 50 °F (1999)
Cooling Degree Days 8    
Growing Degree Days 23 (Base 50)    
Moisture  
Dew Point 66 °F    
Average Humidity 77    
Maximum Humidity 96    
Minimum Humidity 60    
Precipitation  
Precipitation 0.00 in - - ()
Sea Level Pressure  
Sea Level Pressure 30.13 in    
Wind  
Wind Speed 4 mph (SSW)    
Max Wind Speed 9 mph    
Max Gust Speed -    
Visibility 8 miles    
Events Thunderstorm    
Averages and records for this station are not official NWS values.
T = Trace of Precipitation, MM = Missing Value Source: NWS Daily Summary

Daily Weather History Graph

Daily Weather History Graph

Search for Another Location

Airport or City:

Trip Planner

Search our weather history database for the weather conditions in past years. The results will help you decide how hot, cold, wet, or windy it might be!

Date:

Astronomy

Aug. 21, 2013 Rise Set
Actual Time 6:53 AM EDT 8:22 PM EDT
Civil Twilight 6:25 AM EDT 8:50 PM EDT
Nautical Twilight 5:51 AM EDT 9:24 PM EDT
Astronomical Twilight 5:15 AM EDT 9:59 PM EDT
Moon 8:30 PM EDT (8/21) 7:32 AM EDT (8/21)
Length of Visible Light 14h 24m
Length of Day
13h 28m
Full, 100% of the Moon is Illuminated
Aug 21
Full
Aug 28
Last Quarter
Sep 5
New
Sep 12
First Quarter
Sep 19
Full

Hourly Weather History & Observations

Time (EDT) Temp. Heat Index Dew Point Humidity Pressure Visibility Wind Dir Wind Speed Gust Speed Precip Events Conditions
12:54 AM 66.9 °F - 63.0 °F 87% 30.14 in 6.0 mi SE 4.6 mph - N/A   Mostly Cloudy
1:54 AM 68.0 °F - 63.0 °F 84% 30.14 in 6.0 mi SE 4.6 mph - N/A   Haze
2:54 AM 69.1 °F - 64.0 °F 84% 30.13 in 6.0 mi ESE 3.5 mph - N/A   Haze
3:54 AM 68.0 °F - 64.0 °F 87% 30.12 in 5.0 mi ESE 3.5 mph - N/A   Overcast
4:54 AM 66.9 °F - 64.0 °F 90% 30.12 in 5.0 mi Calm Calm - N/A   Overcast
5:54 AM 66.0 °F - 63.0 °F 90% 30.13 in 5.0 mi East 3.5 mph - N/A   Mostly Cloudy
6:54 AM 64.0 °F - 63.0 °F 96% 30.14 in 2.5 mi SE 3.5 mph - N/A   Clear
7:09 AM 64.4 °F - 62.6 °F 94% 30.16 in 3.0 mi Calm Calm - N/A   Clear
7:43 AM 64.4 °F - 62.6 °F 94% 30.18 in 2.5 mi Calm Calm - N/A   Clear
7:54 AM 66.0 °F - 64.0 °F 93% 30.17 in 2.5 mi ENE 3.5 mph - N/A   Scattered Clouds
8:01 AM 66.2 °F - 64.4 °F 94% 30.18 in 3.0 mi Calm Calm - N/A   Mostly Cloudy
8:54 AM 71.1 °F - 64.9 °F 81% 30.18 in 5.0 mi ESE 3.5 mph - N/A   Haze
9:54 AM 75.9 °F - 66.9 °F 74% 30.17 in 7.0 mi South 5.8 mph - N/A   Mostly Cloudy
10:54 AM 79.0 °F - 69.1 °F 72% 30.16 in 8.0 mi SSW 4.6 mph - N/A   Clear
11:54 AM 81.0 °F 84.1 °F 69.1 °F 67% 30.16 in 10.0 mi South 8.1 mph - N/A   Scattered Clouds
12:47 PM 80.6 °F 83.9 °F 69.8 °F 70% 30.17 in 10.0 mi West 5.8 mph - N/A   Mostly Cloudy
12:54 PM 82.0 °F 85.5 °F 69.1 °F 65% 30.14 in 10.0 mi Variable 3.5 mph - N/A   Mostly Cloudy
1:18 PM 82.4 °F 86.3 °F 69.8 °F 66% 30.16 in 10.0 mi WSW 6.9 mph - N/A   Mostly Cloudy
1:54 PM 82.9 °F 86.5 °F 69.1 °F 63% 30.12 in 10.0 mi WSW 9.2 mph - N/A Thunderstorm Scattered Clouds
2:03 PM 82.4 °F 85.4 °F 68.0 °F 62% 30.15 in 10.0 mi WSW 8.1 mph - N/A   Clear
2:47 PM 80.6 °F 83.9 °F 69.8 °F 70% 30.13 in 10.0 mi West 8.1 mph - N/A Thunderstorm Partly Cloudy
2:54 PM 81.0 °F 83.8 °F 68.0 °F 65% 30.10 in 10.0 mi WSW 9.2 mph - N/A Thunderstorm Partly Cloudy
3:45 PM 80.6 °F 83.9 °F 69.8 °F 70% 30.12 in 9.0 mi SSW 4.6 mph - N/A   Clear
3:54 PM 82.0 °F 85.5 °F 69.1 °F 65% 30.09 in 10.0 mi WSW 5.8 mph - N/A   Clear
4:19 PM 80.6 °F 83.9 °F 69.8 °F 70% 30.12 in 10.0 mi SSW 3.5 mph - N/A Thunderstorm Clear
4:34 PM 80.6 °F 83.9 °F 69.8 °F 70% 30.11 in 10.0 mi WSW 6.9 mph - N/A   Clear
4:54 PM 82.9 °F 87.0 °F 70.0 °F 65% 30.08 in 10.0 mi SW 5.8 mph - N/A   Partly Cloudy
5:54 PM 82.0 °F 85.5 °F 69.1 °F 65% 30.10 in 10.0 mi WSW 3.5 mph - N/A   Partly Cloudy
6:54 PM 82.0 °F 84.5 °F 66.9 °F 60% 30.09 in 10.0 mi South 5.8 mph - N/A   Clear
7:54 PM 73.9 °F - 64.9 °F 73% 30.10 in 10.0 mi South 9.2 mph - N/A   Clear
8:54 PM 70.0 °F - 64.9 °F 84% 30.08 in 10.0 mi South 9.2 mph - N/A   Clear
9:54 PM 70.0 °F - 64.9 °F 84% 30.06 in 10.0 mi South 3.5 mph - N/A   Clear
10:54 PM 69.1 °F - 64.9 °F 87% 30.10 in 10.0 mi Calm Calm - N/A   Clear
11:54 PM 66.9 °F - 64.0 °F 90% 30.12 in 10.0 mi South 3.5 mph - N/A   Mostly Cloudy